{"data":{"norad_id":48968,"intl_designator":"2021-060B","name":"ONEWEB-0250","alt_names":[],"object_type":"PAYLOAD","status":"ACTIVE","operator":null,"country":"UK","launch_date":"2021-07-01","launch_site_code":"VOSTO","launch_vehicle":null,"mission":null,"orbit_class":"UNKNOWN","rcs_meters":null,"size_class":null,"mass_kg":null,"dimensions":null,"purposes":["comms"],"wikipedia_slug":null,"has_3d_model":false,"image_url":null,"decayed_at":null,"tle_current":{"epoch":"2026-09-20T02:16:37.123968Z","epoch_age_seconds":56960,"freshness":"FRESH","line1":"1 48968U 21060B   26263.09487412  .00000089  00000+0  17197-3 0  9992","line2":"2 48968  87.9162 207.3853 0001017  85.5448 274.5804 13.25838625252799","mean_motion":13.25838625,"eccentricity":0.0001017,"inclination_deg":87.9162,"raan_deg":207.3853,"arg_perigee_deg":85.5448,"mean_anomaly_deg":274.5804,"bstar":0.00017197,"rev_number":25279,"period_min":108.61050303162,"perigee_km":1161.7336144266,"apogee_km":1163.2673800936,"semimajor_km":7540.6374972601,"source":"CELESTRAK","updated_at":"2026-09-20T09:00:44.623285Z"}}}